TimeMDT,TemperatureF,Dew PointF,Humidity,Sea Level PressureIn,VisibilityMPH,Wind Direction,Wind SpeedMPH,Gust SpeedMPH,PrecipitationIn,Events,Conditions,WindDirDegrees,DateUTC
12:53 AM,53.1,42.1,66,29.83,10.0,SSW,11.5,-,N/A,,Mostly Cloudy,210,2012-10-13 06:53:00
1:53 AM,50.0,41.0,71,29.85,10.0,SSW,8.1,-,N/A,,Clear,210,2012-10-13 07:53:00
2:53 AM,51.1,41.0,68,29.86,10.0,SSW,10.4,-,N/A,,Clear,200,2012-10-13 08:53:00
3:53 AM,50.0,41.0,71,29.87,10.0,SSW,8.1,-,N/A,,Clear,200,2012-10-13 09:53:00
4:53 AM,44.1,37.9,79,29.91,10.0,SW,6.9,-,N/A,,Clear,220,2012-10-13 10:53:00
5:53 AM,43.0,37.9,82,29.95,10.0,SW,4.6,-,N/A,,Clear,220,2012-10-13 11:53:00
6:53 AM,48.0,39.0,71,29.96,10.0,South,9.2,-,N/A,,Clear,190,2012-10-13 12:53:00
7:53 AM,48.0,39.0,71,29.99,10.0,South,10.4,-,N/A,,Scattered Clouds,190,2012-10-13 13:53:00
8:53 AM,51.1,39.0,63,30.03,10.0,SSW,15.0,-,N/A,,Overcast,210,2012-10-13 14:53:00
9:53 AM,54.0,39.9,59,30.04,10.0,SSW,20.7,-,N/A,,Scattered Clouds,200,2012-10-13 15:53:00
10:53 AM,53.1,43.0,69,30.09,5.0,SSW,19.6,-,0.00,Rain,Light Rain,210,2012-10-13 16:53:00
11:53 AM,55.0,42.1,62,30.08,10.0,SW,13.8,23.0,0.00,,Overcast,230,2012-10-13 17:53:00
12:53 PM,57.0,39.9,53,30.10,10.0,WSW,15.0,19.6,N/A,,Overcast,240,2012-10-13 18:53:00
1:53 PM,57.9,44.1,60,30.09,10.0,SSW,19.6,27.6,N/A,,Mostly Cloudy,200,2012-10-13 19:53:00
2:53 PM,62.1,43.0,50,30.09,10.0,SSW,16.1,-,N/A,,Scattered Clouds,200,2012-10-13 20:53:00
3:53 PM,62.1,42.1,48,30.10,10.0,SSW,17.3,20.7,N/A,,Mostly Cloudy,210,2012-10-13 21:53:00
4:53 PM,62.1,42.1,48,30.13,10.0,South,15.0,-,N/A,,Overcast,190,2012-10-13 22:53:00
6:53 PM,57.0,41.0,55,30.14,10.0,South,11.5,-,N/A,,Mostly Cloudy,190,2012-10-14 00:53:00
7:53 PM,55.9,39.9,55,30.16,10.0,SSW,13.8,-,N/A,,Clear,200,2012-10-14 01:53:00
8:53 PM,55.9,41.0,57,30.19,10.0,SSW,17.3,-,0.00,,Overcast,200,2012-10-14 02:53:00
9:53 PM,55.0,39.0,55,30.19,10.0,SSW,17.3,25.3,0.00,,Partly Cloudy,200,2012-10-14 03:53:00
11:53 PM,50.0,37.9,63,30.22,10.0,SSW,10.4,-,N/A,,Clear,200,2012-10-14 05:53:00